Zurück zum Katalog

CZ-4C DEB

AktivLEO
NORAD 43627·DEBRIS·🇨🇳 China

Gestartet Nov 20, 2013 von Taiyuan Satellite Launch Center

Loading…

Nächste Überflüge (nächste 24 Stunden)

TLE

AktuellSource: Space-Track

Epoche: Sep 14, 2026, 23:26 UTC

1 43627U 13065D   26257.97685847  .00009711  00000-0  32569-2 0  9998
2 43627 100.5831 156.1212 0109778 151.5249 209.1986 14.34151796410684

Verfolge CZ-4C DEB in Echtzeit mit AllMySat

Download on the App Store